Simultaneous Nadir Overpasses (SNOs) Predictions

Prediction of SNOs between NOAA-15 and METOP-C Satellite Orbit:

Table of predicted SNOs for the next 14.0 days since TLE Epoch: 4/23/2022
Index Date (NOAA-15) Time (NOAA-15) Lat,Lon (NOAA-15) SZA (NOAA-15 ) Date (METOP-C) Time (METOP-C) Lat,Lon (METOP-C) SZA (METOP-C ) Distance(km) Time Diff (sec)
1 04/28/2022 06:32:38 81.05, 120.17 68.92 04/28/2022 06:31:28 81.06, 120.00 68.88 2.99 70
2 04/28/2022 07:23:10 -81.06, -72.81 111.12 04/28/2022 07:22:08 -81.06, -72.70 111.14 2.08 62
3 04/28/2022 08:13:40 81.05, 94.87 68.89 04/28/2022 08:12:49 81.07, 94.87 68.88 1.63 51
4 04/28/2022 09:04:11 -81.05, -97.73 111.12 04/28/2022 09:03:29 -81.06, -97.83 111.14 2.40 42
5 04/28/2022 09:54:43 81.07, 69.19 68.85 04/28/2022 09:54:11 81.06, 69.36 68.84 3.04 32
6 04/28/2022 10:45:14 -81.07,-123.39 111.17 04/28/2022 10:44:51 -81.06,-123.34 111.18 1.41 23
7 04/28/2022 11:35:44 81.06, 44.27 68.85 04/28/2022 11:35:32 81.07, 44.22 68.85 1.57 12
8 04/28/2022 12:26:15 -81.05,-148.32 111.17 04/28/2022 12:26:12 -81.07,-148.48 111.17 3.06 3
9 04/28/2022 13:16:47 81.07, 18.59 68.80 04/28/2022 13:16:54 81.06, 18.72 68.80 2.49 7
10 04/28/2022 14:07:18 -81.07,-173.98 111.22 04/28/2022 14:07:34 -81.06,-173.98 111.22 1.21 16
11 04/28/2022 14:57:48 81.06, -6.33 68.80 04/28/2022 14:58:15 81.07, -6.42 68.81 1.87 27
12 04/28/2022 15:48:20 -81.07, 160.72 111.24 04/28/2022 15:48:55 -81.07, 160.88 111.21 2.79 35
13 04/28/2022 16:38:51 81.08, -32.01 68.75 04/28/2022 16:39:37 81.06, -31.93 68.76 2.08 46
14 04/28/2022 17:29:22 -81.07, 135.43 111.26 04/28/2022 17:30:17 -81.06, 135.38 111.26 1.65 55
15 04/28/2022 18:19:52 81.06, -56.93 68.75 04/28/2022 18:20:58 81.07, -57.06 68.77 2.39 66



Historial Predications of SNOs between NOAA-15 and METOP-C
